Flag for U.S.A. Weather past 2 weeks in Fullerton, California, U.S.A.

Now
83 °F

Sunny.


Feels Like: 84 °F
Forecast: 67 / 86 °F
Wind: 8 mph from Southwest

Location: Fullerton Municipal Airport

Current Time: Aug 3, 2015 at 3:34:36 PM

Latest Report: Aug 3, 2015 at 1:53 PM


Visibility: 10 mi

Pressure: 29.88 "Hg

Humidity: 53%

Dew point: 64 °F

Location of FullertonLocation

Historic Weather in Fullerton — Graph

°F

Fullerton temperature yesterday

Maximum temperature yesterday: 84 °F (at 1:53 PM)
Minimum temperature yesterday: 70 °F (at 1:53 AM)
Average temperature yesterday: 75 °F

Past Weeks' High & Low Weather Summary

 TemperatureHumidityPressure
High89 °F (Jul 25, 1:53 PM)90% (Jul 20, 9:53 PM)30.07 "Hg (Jul 20, 9:53 PM)
Low68 °F (Jul 27, 1:53 AM)30% (Jul 25, 12:53 PM)29.80 "Hg (Aug 2, 6:53 PM)
Average76 °F69%29.92 "Hg
* Reported Jul 19 1:53 PM — Aug 3 1:53 PM, Fullerton, Weather by CustomWeather, © 2015

Note: Actual official high and low records may vary slightly from our data, if they occured in-between our weather recording intervals... More about our weather records

Advertising

Fullerton weather history for previous 24 hours

 ConditionsComfort  
Time TempWeatherWind HumidityBarometerVisibility
1:53 PM
Mon, Aug 3
83 °FSunny.8 mph53%29.88 "Hg10 mi
12:53 PM83 °FSunny.12 mph53%29.88 "Hg10 mi
11:53 AM83 °FSunny.No wind50%29.88 "Hg10 mi
10:53 AM80 °FSunny.No wind58%29.89 "Hg10 mi
9:53 AM77 °FSunny.5 mph64%29.90 "Hg10 mi
9:00 AM74 °FPartly sunny.3 mph71%29.90 "Hg9 mi
7:53 AM71 °FOvercast.No wind78%29.88 "Hg8 mi
6:53 AM70 °FOvercast.3 mph81%29.88 "Hg9 mi
5:53 AM70 °FOvercast.No wind81%29.88 "Hg10 mi
4:53 AM70 °FOvercast.No wind81%29.86 "Hg10 mi
3:53 AM70 °FOvercast.5 mph81%29.85 "Hg10 mi
2:53 AM70 °FOvercast.3 mph84%29.86 "Hg10 mi
2:03 AM70 °FPartly cloudy.3 mph81%29.86 "Hg10 mi
12:53 AM71 °FClear.3 mph81%29.85 "Hg10 mi
11:53 PM
Sun, Aug 2
73 °FClear.No wind66%29.85 "Hg10 mi
10:53 PM73 °FClear.No wind66%29.85 "Hg10 mi
9:53 PM73 °FClear.3 mph66%29.84 "Hg10 mi
8:53 PM75 °FClear.No wind66%29.82 "Hg10 mi
7:53 PM77 °FSunny.6 mph64%29.82 "Hg10 mi
6:53 PM79 °FSunny.5 mph62%29.80 "Hg10 mi
5:53 PM81 °FSunny.7 mph58%29.81 "Hg10 mi
4:53 PM82 °FWarm.8 mph56%29.82 "Hg10 mi
3:53 PM83 °FSunny.7 mph53%29.83 "Hg10 mi
Weather by CustomWeather, © 2015

See weather overviewHow to use our weather pages